Weather History for KTWF - November, 2013

Change the Weather History Date:

Tuesday, November 12, 2013

  Actual Average Record
Temperature  
Mean Temperature 50 °F -  
Max Temperature 66 °F 50 °F 72 °F (1999)
Min Temperature 33 °F 28 °F 11 °F (2014)
Degree Days  
Heating Degree Days 15 26  
Month to date heating degree days 242 279  
Since 1 July heating degree days 853 898  
Cooling Degree Days 0 0  
Month to date cooling degree days 0 0  
Year to date cooling degree days 1138 680  
Moisture  
Dew Point 27 °F    
Average Humidity 48    
Maximum Humidity 69    
Minimum Humidity 26    
Precipitation  
Precipitation 0.00 in 0.03 in 0.12 in (1980)
Month to date precipitation 0.07 0.44  
Year to date precipitation 4.30 8.69  
Sea Level Pressure  
Sea Level Pressure 30.32 in    
Wind  
Wind Speed 9 mph (ESE)    
Max Wind Speed 14 mph    
Max Gust Speed 17 mph    
Visibility 10 miles    
Events Snow    
T = Trace of Precipitation, MM = Missing Value Source: NWS Daily Summary

Daily Weather History Graph

Daily Weather History Graph

Search for Another Location

Airport or City:

Trip Planner

Search our weather history database for the weather conditions in past years. The results will help you decide how hot, cold, wet, or windy it might be!

Date:

Astronomy

Nov. 12, 2013 Rise Set
Actual Time 7:25 AM MST 5:18 PM MST
Civil Twilight 6:55 AM MST 5:48 PM MST
Nautical Twilight 6:21 AM MST 6:22 PM MST
Astronomical Twilight 5:48 AM MST 6:55 PM MST
Moon 2:40 PM MST (11/12) 2:13 AM MST (11/12)
Length of Visible Light 10h 52m
Length of Day
9h 52m
Waxing Gibbous, 77% of the Moon is Illuminated
Nov 12
Waxing Gibbous
Nov 17
Full
Nov 25
Last Quarter
Dec 2
New
Dec 9
First Quarter

Hourly Weather History & Observations

Time (MST) Temp. Windchill Dew Point Humidity Pressure Visibility Wind Dir Wind Speed Gust Speed Precip Events Conditions
12:53 AM 37.9 °F 30.9 °F 24.1 °F 57% 30.29 in 9.0 mi ESE 10.4 mph - 0.00 in Snow Light Snow
1:53 AM 35.1 °F 27.9 °F 24.1 °F 64% 30.30 in 9.0 mi East 9.2 mph - 0.00 in Snow Light Snow
2:53 AM 34.0 °F 25.5 °F 23.0 °F 64% 30.32 in 9.0 mi East 11.5 mph - 0.00 in Snow Light Snow
3:53 AM 35.1 °F 26.4 °F 25.0 °F 67% 30.31 in 9.0 mi East 12.7 mph - 0.00 in Snow Light Snow
4:53 AM 35.1 °F 26.9 °F 24.1 °F 64% 30.33 in 9.0 mi East 11.5 mph - 0.00 in Snow Light Snow
5:53 AM 34.0 °F 25.5 °F 25.0 °F 70% 30.35 in 9.0 mi East 11.5 mph - 0.00 in Snow Light Snow
6:53 AM 33.1 °F 24.4 °F 24.1 °F 70% 30.36 in 10.0 mi East 11.5 mph - 0.00 in   Clear
7:53 AM 34.0 °F 25.5 °F 25.0 °F 70% 30.38 in 10.0 mi East 11.5 mph - N/A   Clear
8:53 AM 39.9 °F 32.5 °F 27.0 °F 60% 30.38 in 10.0 mi East 12.7 mph - N/A   Clear
9:53 AM 45.0 °F 40.1 °F 28.0 °F 52% 30.37 in 10.0 mi East 9.2 mph - N/A   Clear
10:53 AM 51.1 °F - 28.9 °F 43% 30.34 in 10.0 mi ENE 10.4 mph - N/A   Clear
11:53 AM 57.0 °F - 30.0 °F 36% 30.31 in 10.0 mi ENE 8.1 mph - N/A   Clear
12:53 PM 61.0 °F - 30.0 °F 31% 30.27 in 10.0 mi ENE 8.1 mph - N/A   Clear
1:53 PM 64.9 °F - 30.0 °F 27% 30.26 in 9.0 mi NNE 4.6 mph - N/A   Clear
2:53 PM 64.9 °F - 28.0 °F 25% 30.27 in 10.0 mi West 8.1 mph - N/A   Clear
3:53 PM 64.0 °F - 28.0 °F 26% 30.27 in 10.0 mi SW 6.9 mph - N/A   Clear
4:53 PM 59.0 °F - 28.9 °F 32% 30.31 in 10.0 mi SW 9.2 mph - N/A   Clear
5:53 PM 52.0 °F - 28.9 °F 41% 30.32 in 10.0 mi West 3.5 mph - N/A   Clear
6:53 PM 50.0 °F - 30.9 °F 48% 30.35 in 10.0 mi WSW 4.6 mph - N/A   Clear
7:53 PM 46.9 °F - 30.0 °F 52% 30.37 in 10.0 mi SSE 8.1 mph - N/A   Clear
8:53 PM 52.0 °F - 26.1 °F 37% 30.34 in 10.0 mi South 10.4 mph - N/A   Clear
9:53 PM 54.0 °F - 24.1 °F 31% 30.31 in 10.0 mi South 11.5 mph - N/A   Clear
10:53 PM 54.0 °F - 24.1 °F 31% 30.27 in 10.0 mi South 8.1 mph - N/A   Clear
11:53 PM 53.1 °F - 24.1 °F 32% 30.26 in 10.0 mi South 9.2 mph - N/A   Clear